GFSSW_925_spd_276.txt.gz
Wind_Speed
12 13 14 15 16 16 16 16 16 16 17 17 17 17 18 20 19 9 11 6 6 13 7 7 11 16 17 15 18 18 13 14 22 20 15 20 9 8 4 11 6 10 23 24 26
13 15 15 16 16 17 18 17 17 17 17 17 17 16 18 19 16 19 15 11 9 9 9 13 12 15 13 17 15 16 13 20 22 11 8 6 4 13 7 9 12 19 23 28 27
15 16 17 17 18 19 19 18 17 17 17 18 16 16 16 11 10 4 12 6 8 11 14 15 16 14 16 16 19 19 17 21 23 17 12 16 4 11 14 15 12 14 20 22 24
17 18 18 19 19 21 20 18 19 19 18 16 15 14 11 3 2 7 6 5 6 9 10 14 14 15 15 17 19 20 20 21 23 22 7 11 2 6 4 7 26 10 17 21 20
18 19 20 20 21 22 20 18 14 13 13 13 12 10 2 7 7 7 4 4 8 8 13 12 12 13 15 17 17 18 18 19 20 19 4 12 13 5 8 24 30 20 17 20 18
19 21 22 21 23 22 19 13 13 10 8 8 8 5 3 10 5 7 8 9 9 12 14 14 12 12 15 16 16 15 17 20 20 15 13 11 15 3 10 25 36 30 23 20 19
22 22 22 22 24 21 13 13 8 7 6 5 6 4 9 12 1 6 10 10 8 11 9 9 14 11 9 13 16 17 17 11 17 16 16 9 14 14 13 13 14 23 20 21 19
24 23 23 23 23 18 11 11 6 6 4 2 5 3 8 4 1 8 11 6 5 5 8 11 8 11 16 15 12 13 15 14 18 18 16 14 15 16 15 15 18 18 19 18 21
26 24 23 23 21 14 11 10 5 3 1 2 3 7 8 5 10 10 9 6 5 5 6 8 9 12 15 13 11 12 12 19 18 19 17 12 17 16 17 19 15 27 31 17 12
27 26 23 22 18 11 12 8 6 5 5 6 14 9 10 5 9 8 11 9 5 5 5 7 7 10 13 12 13 10 18 13 15 15 14 13 15 14 20 19 15 8 14 13 16
28 26 24 18 10 11 9 5 5 6 9 10 7 10 6 6 4 8 11 11 11 6 11 11 10 12 14 17 19 10 15 14 8 8 3 8 11 16 15 8 7 10 10 10 13
28 26 23 15 6 9 9 6 7 8 8 8 2 8 4 4 7 10 11 8 9 11 12 10 12 15 12 6 10 10 14 14 15 7 2 10 14 14 14 13 12 12 12 13 19
28 27 20 11 6 9 7 6 8 9 6 10 4 1 3 9 8 13 13 13 11 11 13 9 11 4 3 7 10 12 13 14 14 14 10 10 16 16 13 15 15 13 12 15 20
28 25 16 9 7 4 6 7 8 5 5 12 10 6 8 9 6 7 12 14 9 12 14 9 13 5 5 9 11 11 14 15 12 13 10 13 11 15 13 14 17 17 16 15 17
28 23 10 7 13 7 9 9 7 3 5 6 6 6 12 7 9 11 7 12 12 16 5 14 7 5 11 13 10 11 8 8 10 11 14 17 11 15 9 18 20 18 19 20 18
28 19 9 6 10 6 8 7 4 5 3 8 5 8 13 14 8 6 6 10 12 13 11 14 7 5 9 11 3 12 9 9 12 12 12 17 15 16 15 11 9 9 11 19 20
26 13 8 9 8 10 11 6 6 8 2 6 6 6 6 5 9 7 9 8 11 7 9 10 13 12 8 11 11 11 9 9 11 11 14 10 16 13 14 9 12 12 19 14 15
24 11 7 11 11 11 11 8 8 5 2 5 3 3 7 6 7 6 6 11 10 7 11 9 15 9 6 5 12 10 13 9 15 13 8 15 8 2 7 4 6 9 7 12 12
23 10 8 10 7 8 7 8 8 10 5 3 7 9 9 5 6 4 9 11 4 8 6 9 15 11 10 6 10 14 12 13 11 17 13 13 3 11 10 5 13 9 10 2 9
18 13 16 1 4 8 7 14 10 4 6 4 11 5 9 11 6 8 9 5 2 5 10 13 11 8 7 5 11 14 14 10 7 8 13 14 7 11 14 13 19 24 16 19 14
6 5 6 3 5 6 9 8 4 10 5 3 8 5 9 5 4 12 1 8 4 5 9 13 8 14 15 8 10 5 4 11 4 5 7 11 7 16 20 14 12 22 20 14 15
7 5 6 2 6 8 12 11 1 1 2 5 5 9 8 4 6 8 6 10 5 4 8 8 5 9 17 22 18 16 7 11 7 5 3 5 10 6 11 11 16 17 21 10 9
5 9 5 4 6 8 5 5 2 3 8 4 4 5 2 5 3 10 7 11 7 5 6 10 3 8 11 13 10 10 12 16 5 5 11 11 9 10 4 2 6 4 12 9 12
5 4 5 5 6 7 11 5 7 1 10 3 10 3 6 8 9 5 6 8 7 5 7 4 5 9 12 19 17 15 4 14 14 7 12 14 18 17 15 12 9 9 15 17 15
4 2 4 5 6 8 6 9 10 6 7 3 7 10 9 9 12 12 12 5 9 12 4 3 8 13 16 20 21 21 20 16 18 16 15 18 20 17 15 14 10 14 16 15 15
4 4 7 10 6 8 4 8 11 12 1 6 9 11 6 6 9 12 13 8 4 8 6 7 8 9 14 17 19 22 22 22 20 20 21 20 22 16 14 10 14 13 15 12 14
12 10 4 8 7 7 9 9 9 5 5 4 9 9 10 4 8 9 7 8 9 7 9 8 8 9 16 16 17 18 17 21 22 20 20 18 18 13 9 14 14 14 15 15 16

GFSSW_925_spd_279.txt.gz
Wind_Speed
13 14 15 16 17 16 17 17 17 17 18 18 18 19 20 22 22 12 7 11 6 15 11 9 6 9 11 5 7 6 3 9 15 8 6 4 10 6 13 6 4 5 15 23 29
14 16 17 17 18 18 19 19 18 17 17 18 19 19 19 19 18 13 14 12 11 6 10 10 7 8 2 5 5 1 4 10 17 9 5 6 5 12 11 17 11 20 18 23 23
16 18 19 20 20 20 21 20 18 18 17 18 19 18 16 11 5 6 8 12 11 9 11 13 13 7 7 6 8 8 9 14 19 12 13 6 12 6 19 11 13 10 5 10 11
18 19 21 21 22 22 21 20 18 16 14 14 15 14 10 3 3 2 10 7 5 7 6 9 7 5 6 8 10 7 14 16 18 15 9 4 2 6 18 14 28 21 19 13 11
19 20 22 23 23 23 22 18 14 15 14 13 12 8 2 3 9 7 7 5 5 7 10 8 7 4 6 9 7 7 13 14 14 12 8 7 5 8 11 22 22 17 13 10 12
20 22 22 24 24 24 20 13 13 10 10 11 9 0 0 4 8 8 6 7 5 10 14 15 9 10 8 7 4 8 9 13 11 12 6 5 4 4 10 17 18 15 13 10 8
21 23 23 23 25 23 17 11 11 8 9 8 4 4 4 12 5 6 7 8 13 13 10 20 21 4 7 8 9 10 9 10 9 6 8 8 3 7 20 16 19 14 7 6 8
23 24 24 24 25 21 13 12 8 6 6 5 1 3 6 7 6 9 10 16 15 12 9 15 16 4 3 8 10 8 5 6 10 8 11 2 7 9 23 21 19 25 19 11 21
24 25 24 25 23 18 12 12 6 3 3 3 1 2 7 6 7 11 15 13 10 9 4 9 9 4 8 6 7 6 6 8 11 14 11 10 7 8 16 21 23 26 31 30 26
26 27 25 24 21 15 12 13 5 1 3 4 8 4 8 10 8 14 8 11 3 5 4 3 3 4 4 2 7 7 6 9 9 13 9 9 8 9 10 8 29 26 27 20 12
28 28 26 22 17 14 13 4 2 1 5 9 5 6 5 9 5 3 12 8 9 4 6 7 2 8 14 14 12 9 6 8 9 13 2 9 2 6 8 3 21 16 10 17 23
28 28 26 18 13 13 11 1 5 8 8 13 19 11 8 5 5 9 12 5 6 8 8 1 9 15 9 4 4 8 8 11 11 9 3 3 5 6 9 6 16 15 14 16 12
29 29 25 16 12 12 8 7 8 8 3 9 13 6 5 5 7 9 11 8 8 9 10 8 10 8 2 7 7 6 6 8 9 11 9 4 7 9 9 7 8 11 14 26 31
29 28 22 14 9 10 6 9 10 9 3 6 7 4 5 6 5 12 16 8 6 10 10 8 7 5 5 4 6 5 10 8 12 5 4 3 6 8 8 11 8 10 9 28 28
28 27 18 12 12 7 9 10 12 2 3 10 7 16 10 7 8 4 16 6 10 12 6 12 7 2 1 9 9 8 6 6 7 8 7 12 3 8 10 8 8 11 12 11 19
28 25 16 4 11 9 15 13 5 2 5 5 6 7 8 10 6 7 6 4 6 8 11 11 6 4 2 8 6 7 7 9 7 2 5 7 4 10 9 7 9 7 9 10 19
27 22 13 9 4 13 16 9 1 3 3 7 6 6 12 10 7 8 8 6 4 3 4 8 4 5 6 2 8 3 1 3 5 1 8 6 6 8 10 27 26 7 10 17 11
28 19 8 13 11 11 12 3 4 7 8 4 5 1 5 1 3 3 4 6 7 2 5 4 7 11 4 0 2 6 5 5 3 5 5 6 3 4 21 22 30 28 23 20 16
27 14 7 6 3 7 2 3 5 5 14 4 2 2 5 3 1 6 5 4 3 7 3 4 7 6 16 8 4 7 4 2 7 6 4 2 9 17 22 21 18 15 16 17 13
22 8 9 12 8 1 0 5 5 9 6 7 4 3 6 5 6 5 4 5 4 7 8 4 3 5 12 6 5 5 2 6 5 2 7 5 5 2 10 10 15 11 8 12 13
8 3 4 5 8 1 3 6 11 11 6 5 7 7 7 6 2 3 4 9 8 6 4 4 1 6 8 3 9 8 3 6 3 2 3 3 2 6 2 6 4 7 6 7 7
8 2 10 4 0 3 4 5 5 9 5 2 3 5 6 8 7 5 6 4 4 3 3 2 2 3 7 14 10 7 3 4 5 6 1 3 6 8 8 8 7 7 4 8 8
4 4 7 6 2 4 7 14 2 4 3 2 3 4 5 6 5 5 3 4 4 5 3 4 4 4 9 6 6 5 6 3 3 2 4 2 5 4 7 4 5 7 7 8 7
3 3 2 1 3 6 6 7 2 5 2 4 5 7 5 3 5 4 4 4 5 5 7 6 1 3 5 6 4 7 10 3 6 3 4 8 7 10 2 6 6 6 9 10 10
3 2 5 4 5 6 7 9 9 2 3 4 1 6 7 2 6 7 6 1 7 8 4 4 2 3 8 11 13 12 12 9 5 6 5 10 7 6 9 6 5 6 10 10 9
3 4 4 5 8 6 4 5 9 10 1 6 6 6 6 4 6 6 6 6 6 6 5 4 3 4 5 11 14 17 13 11 10 11 11 12 12 8 2 10 13 10 12 10 7
10 9 3 6 6 5 5 7 6 4 5 7 8 6 9 7 6 5 4 4 3 3 4 4 1 0 4 8 14 9 9 9 9 9 8 10 12 10 12 12 9 8 9 8 9

GFSSW_925_spd_282.txt.gz
Wind_Speed
14 16 17 17 18 18 18 18 19 18 17 17 18 18 18 21 22 17 8 10 2 3 10 7 5 3 3 2 4 4 2 5 4 2 2 2 6 2 12 14 21 6 6 25 28
16 17 18 19 19 19 19 19 19 17 17 17 17 16 16 18 18 13 10 7 5 4 7 5 2 1 1 2 2 4 3 4 8 5 8 4 10 11 7 14 4 12 15 29 27
18 18 19 20 20 21 20 20 19 16 14 14 15 13 12 12 5 6 3 8 7 6 7 3 3 1 1 1 3 2 5 5 10 11 8 7 21 9 19 15 19 23 24 20 25
19 19 20 20 21 21 21 20 16 12 13 13 13 10 7 4 1 4 2 5 6 6 5 2 2 2 2 3 4 1 9 8 10 12 4 7 14 12 18 6 14 26 26 22 22
19 20 21 21 21 22 21 17 12 13 10 10 9 5 2 2 8 4 5 5 6 7 6 3 2 4 4 4 3 5 10 9 13 10 9 5 6 10 12 12 15 19 20 18 13
20 21 23 23 22 22 19 13 12 11 9 9 7 2 3 3 4 7 8 6 6 9 5 5 6 3 5 4 3 5 6 10 8 10 6 3 5 5 3 18 9 9 9 8 9
21 23 23 23 23 21 16 9 11 9 8 8 2 4 0 11 2 8 7 7 9 10 4 8 11 2 4 8 2 4 6 10 6 3 4 5 3 5 16 13 13 7 9 10 8
23 24 24 24 24 20 13 10 10 6 5 5 4 2 6 7 10 13 13 8 10 14 15 17 5 4 1 4 9 7 4 6 8 5 8 7 8 5 17 18 16 11 14 16 16
24 25 25 25 22 18 11 11 5 1 2 3 2 1 8 8 5 12 14 10 12 17 13 10 4 0 7 4 6 6 4 6 10 2 5 5 10 11 16 17 16 16 18 10 7
25 26 25 24 20 15 11 11 1 1 1 1 3 4 5 4 5 11 13 11 3 4 4 1 5 2 4 4 4 7 4 6 7 9 4 9 13 20 20 21 20 17 4 8 8
26 27 26 22 18 15 13 2 4 2 5 7 5 5 9 3 9 6 11 3 3 3 3 3 4 5 11 10 8 3 5 8 5 5 2 6 5 20 17 9 12 12 12 9 12
26 26 25 19 14 13 10 1 4 4 7 10 14 8 18 14 2 3 6 4 0 6 2 6 7 14 7 8 10 9 7 8 7 8 5 9 1 4 24 22 21 20 17 13 9
26 26 24 16 11 6 6 10 8 7 1 8 7 5 5 7 5 5 8 4 4 6 6 5 13 7 6 9 5 4 4 5 6 8 3 4 8 7 4 20 20 18 25 18 22
26 25 23 15 2 9 6 9 8 2 4 6 4 4 4 3 3 9 19 6 2 5 4 6 5 4 4 2 3 5 3 5 5 6 2 4 3 8 15 14 13 21 22 24 25
27 24 20 11 8 4 15 15 9 3 3 4 4 7 6 7 3 3 18 3 7 8 4 9 7 6 4 2 3 8 2 2 3 5 3 9 6 9 18 20 23 9 28 30 31
27 22 16 7 8 6 19 14 4 4 3 3 6 6 6 4 3 6 5 2 3 3 1 7 6 1 3 2 1 4 5 8 5 4 5 5 5 10 8 9 17 17 6 14 16
27 21 14 7 4 10 16 5 4 3 5 4 5 5 7 5 5 6 6 4 4 3 5 6 5 7 3 4 8 8 7 4 5 5 4 2 8 2 5 4 9 10 9 2 12
27 18 7 11 6 7 8 5 1 4 5 6 4 4 6 7 5 9 5 2 3 3 2 4 8 7 7 3 4 2 6 5 1 2 5 7 2 4 3 1 6 11 8 16 12
25 11 5 4 5 0 5 4 6 4 4 7 5 3 4 2 3 4 3 4 3 4 6 3 4 4 2 5 4 6 5 2 3 2 4 0 3 5 1 8 15 9 9 4 10
19 9 6 9 4 4 5 4 4 3 4 4 5 5 5 5 3 5 2 5 3 3 5 4 1 3 7 8 7 6 1 3 4 2 2 1 2 4 5 3 9 4 1 5 3
6 4 1 10 11 5 3 6 5 4 3 4 2 4 3 4 5 2 5 3 5 4 8 3 4 6 5 1 2 6 4 6 3 4 4 1 5 7 8 5 10 8 9 7 3
6 2 3 7 3 1 2 4 3 3 1 3 2 2 2 4 5 4 2 2 3 2 3 2 4 2 7 5 6 0 3 4 4 4 1 3 6 3 10 6 4 7 4 3 4
2 3 5 4 1 2 5 6 8 4 3 3 4 2 2 2 2 3 1 3 6 3 4 1 2 3 9 6 7 4 3 3 4 3 4 5 5 4 4 3 6 9 6 4 3
2 4 4 4 1 1 4 4 6 5 2 4 2 4 5 4 4 2 2 3 3 2 3 6 3 6 7 4 2 5 6 2 3 2 3 5 5 8 5 7 6 7 6 5 4
2 1 2 3 4 5 2 3 4 6 5 3 3 1 1 2 4 4 5 7 7 3 2 4 3 4 4 5 1 4 8 7 5 5 5 7 6 8 4 7 6 6 6 5 2
2 3 4 3 4 5 3 4 3 4 2 3 4 5 6 5 2 2 1 2 2 5 6 6 2 2 3 4 3 4 9 9 9 9 6 8 7 3 7 9 8 6 7 6 4
5 4 4 4 5 3 1 7 8 0 8 5 4 5 6 3 1 3 3 2 3 3 1 2 1 2 4 4 4 1 7 7 4 4 5 4 8 14 9 10 6 7 6 6 5

GFSSW_925_spd_285.txt.gz
Wind_Speed
14 15 16 17 17 17 18 18 19 19 18 17 16 16 16 18 20 12 7 3 5 5 7 2 1 2 3 1 3 4 4 2 4 4 5 6 5 3 5 6 4 6 5 14 28
15 17 17 18 18 18 18 19 19 18 16 15 14 14 14 16 15 11 2 4 8 2 4 3 3 3 1 2 1 4 4 8 6 4 6 3 6 5 3 4 4 3 8 33 32
17 18 19 19 19 19 18 19 18 14 12 13 12 10 9 10 4 5 2 8 7 5 3 2 2 3 1 1 3 4 4 5 7 11 3 5 6 7 13 7 9 13 19 24 28
19 19 20 21 21 19 19 18 14 11 12 10 9 7 5 4 2 1 4 7 7 5 5 5 3 3 1 2 2 0 7 4 8 3 3 7 8 5 13 12 15 15 21 22 20
19 21 21 22 21 20 19 15 9 10 9 9 8 3 2 2 8 2 5 6 7 7 6 4 2 3 1 2 1 5 7 6 11 11 7 8 12 10 20 4 8 15 19 18 20
21 21 23 22 22 20 16 10 9 9 6 7 5 3 2 2 4 3 7 5 6 9 5 6 6 7 2 3 3 4 5 7 7 10 5 8 5 12 12 9 14 18 18 18 21
22 22 23 22 22 19 13 8 9 6 4 4 2 3 2 9 4 2 6 4 5 7 3 6 4 2 2 4 3 4 6 8 3 4 4 8 4 7 7 17 17 19 14 13 18
22 22 23 23 20 17 11 8 7 3 2 3 5 2 5 2 6 9 10 8 6 8 12 13 7 4 2 2 8 5 5 5 6 4 4 5 7 5 13 21 17 15 13 12 11
23 24 24 24 19 15 11 9 3 2 2 4 3 3 8 7 4 7 14 6 4 10 11 13 0 2 6 4 5 7 2 3 11 3 4 3 9 6 8 12 15 14 10 12 7
23 24 24 22 17 14 10 2 3 3 3 2 1 3 5 4 3 6 8 12 6 3 4 5 5 3 4 4 3 2 4 5 6 7 4 4 7 7 12 14 14 8 11 14 12
24 25 24 21 16 11 6 2 4 3 2 5 3 3 6 6 2 4 10 4 2 8 2 3 5 5 7 7 4 1 4 5 6 8 3 6 7 3 7 7 9 11 12 16 17
26 27 24 19 14 9 4 2 3 3 6 9 7 6 13 6 4 3 4 2 4 1 2 6 4 10 6 5 6 4 3 9 5 4 3 17 20 9 8 10 7 9 13 21 14
27 26 23 19 10 3 6 9 13 3 2 7 5 4 5 9 6 6 7 3 2 2 4 4 11 5 6 5 2 4 5 4 4 3 4 9 11 14 8 5 12 9 12 14 13
27 26 23 17 2 8 3 18 8 3 4 5 3 5 3 5 4 8 11 5 1 2 2 4 4 4 3 4 6 4 6 4 2 5 2 4 1 5 6 8 6 7 12 21 21
28 26 21 14 8 2 7 16 5 2 3 2 3 2 3 5 1 1 5 4 4 4 5 7 7 8 2 4 2 5 2 3 2 5 4 7 6 7 5 8 8 10 9 18 20
28 25 20 7 5 4 13 11 1 4 1 2 4 4 4 1 3 2 3 2 1 1 1 7 5 2 3 4 3 3 3 4 5 2 4 5 6 5 4 6 9 9 12 9 6
29 24 17 8 2 6 12 3 4 3 5 3 5 4 4 5 3 5 5 5 3 3 4 5 4 7 3 7 7 8 7 4 5 5 3 3 6 6 7 7 6 6 9 8 9
27 21 11 11 3 3 4 5 1 2 5 4 3 3 6 5 6 5 5 2 3 4 2 2 6 5 5 1 3 4 5 5 1 0 4 4 4 5 7 7 8 4 1 5 4
25 11 7 0 6 4 5 3 6 4 5 6 4 3 5 6 2 3 5 3 1 5 5 3 4 4 2 2 2 2 5 1 6 3 2 3 3 5 5 9 7 1 3 1 5
18 8 5 4 7 5 5 4 4 4 4 3 3 4 3 5 5 3 3 2 2 3 3 4 2 3 4 1 6 6 1 3 4 1 1 4 4 4 6 8 2 3 4 4 3
5 3 7 8 5 5 3 6 5 7 4 3 2 2 2 3 2 3 2 4 4 3 6 3 3 6 4 5 3 5 4 7 4 3 4 1 6 6 7 6 6 6 4 3 4
5 2 6 5 3 1 2 4 4 5 5 1 3 3 2 3 4 2 2 1 5 1 3 2 4 1 4 6 4 3 3 4 4 2 0 3 6 4 6 7 5 7 4 3 4
2 3 3 2 2 2 5 4 3 4 3 0 2 3 1 2 2 3 2 3 5 3 4 4 2 3 8 6 6 6 3 4 4 3 4 5 5 1 4 4 1 8 4 1 4
2 3 4 4 1 3 2 3 5 8 2 3 3 4 4 3 6 2 4 7 4 4 8 6 3 6 6 5 3 2 1 1 3 2 3 5 6 11 5 3 6 7 6 3 1
3 1 3 2 3 3 1 3 3 5 5 5 4 4 4 2 2 2 3 4 6 8 4 4 4 4 5 5 3 3 6 3 6 6 5 7 8 11 5 9 8 8 7 6 4
2 2 3 0 3 3 5 5 6 5 5 3 4 3 3 5 3 5 2 0 1 5 3 4 1 1 3 2 5 4 7 10 8 7 7 8 9 7 4 6 6 6 6 5 4
2 1 3 3 3 3 1 3 3 5 3 4 7 4 4 4 3 2 2 2 1 1 2 2 3 3 4 2 5 4 8 6 2 4 3 5 5 3 3 6 6 6 6 5 4